Location: Cheching
(60.0667°N, 164.2167°W)
Time: 22:02:41
(UTC+00:00)

NOAA 15 - Pass Details

Date: 26 January 2021
Orbit: 798 x 812 km, 98.7° (Epoch: 07 March)

Event Time Altitude Azimuth Distance (km) Brightness Sun altitude
Rises 17:20:00 0° 22° (NNE) 3,346 7.9 -14.7°
Reaches altitude 10° 17:23:02 10° 39° (NE) 2,411 7.4 -14.3°
Maximum altitude 17:26:50 20° 85° (E) 1,829 7.5 -13.9°
Drops below altitude 10° 17:30:38 10° 131° (SE) 2,403 8.1 -13.4°
Sets 17:33:38 0° 149° (SSE) 3,330 8.6 -13.0°
